Language: 


Des rapports , des résumés tant et plus, au choix de chacun....


Données statistiques de la station
Quotidien Rapport Juin 17, 2017 Unités:  Métrique    Anglais   les deux
« Précédent Jour
Suivant Jour »
Quotidien Hebdomadaire Mensuel Annuel Actuel
  Haut: Bas: Moyen:
Température: 29.7 °C 0.0 °C 24.3 °C
Pt de rosée: 23.0 °C 13.0 °C 18.4 °C
Humidité: 98 % 0 % 71 %
Vitesse du vent: 15.8 km/h 0.0 km/h 5.4 km/h
Rafales: 17.7 km/h - -
Vent:- - WSW
Pression: 1027.0 hPa 0.0 hPa -
Précipitation: 0.0 mm    
Historical Graphs
 
 
Données statistiques pour Juin 17, 2017
Heure Température Point de rosée Pression Vent Vitesse du vent Refales Humidité Pluie (taux horaire)
00:04 22.8 °C 23.0 °C 1026.0 hPa WSW 10.5 km/h 13.7 km/h 98 % 0.0 mm
00:09 22.8 °C 23.0 °C 1026.0 hPa WSW 11.9 km/h 14.0 km/h 98 % 0.0 mm
00:14 22.8 °C 23.0 °C 1026.0 hPa WSW 11.9 km/h 14.0 km/h 98 % 0.0 mm
00:19 22.8 °C 23.0 °C 1026.0 hPa WSW 8.7 km/h 14.0 km/h 98 % 0.0 mm
00:24 22.8 °C 23.0 °C 1026.0 hPa West 6.4 km/h 14.0 km/h 98 % 0.0 mm
00:29 22.8 °C 23.0 °C 1026.0 hPa WSW 6.4 km/h 14.0 km/h 98 % 0.0 mm
00:34 22.8 °C 23.0 °C 1026.0 hPa WSW 10.1 km/h 13.0 km/h 98 % 0.0 mm
00:39 22.8 °C 23.0 °C 1026.0 hPa West 5.8 km/h 10.1 km/h 98 % 0.0 mm
00:44 22.8 °C 23.0 °C 1026.0 hPa West 6.1 km/h 10.5 km/h 98 % 0.0 mm
00:49 22.8 °C 23.0 °C 1026.0 hPa WSW 10.5 km/h 13.0 km/h 98 % 0.0 mm
00:54 22.8 °C 23.0 °C 1026.0 hPa West 6.9 km/h 13.0 km/h 98 % 0.0 mm
00:59 22.8 °C 23.0 °C 1026.0 hPa West 10.5 km/h 12.6 km/h 98 % 0.0 mm
01:04 22.8 °C 23.0 °C 1026.0 hPa WSW 7.9 km/h 12.6 km/h 98 % 0.0 mm
01:09 22.8 °C 23.0 °C 1026.0 hPa WSW 6.1 km/h 13.7 km/h 98 % 0.0 mm
01:14 22.8 °C 23.0 °C 1026.0 hPa West 9.7 km/h 13.7 km/h 98 % 0.0 mm
01:19 22.8 °C 23.0 °C 1026.0 hPa WSW 7.9 km/h 14.0 km/h 98 % 0.0 mm
01:24 22.8 °C 23.0 °C 1026.0 hPa West 5.8 km/h 14.0 km/h 98 % 0.0 mm
01:29 22.8 °C 23.0 °C 1026.0 hPa Calm   10.1 km/h 98 % 0.0 mm
01:34 22.8 °C 23.0 °C 1026.0 hPa WSW 6.9 km/h 9.3 km/h 98 % 0.0 mm
01:39 22.8 °C 23.0 °C 1026.0 hPa WSW 6.9 km/h 10.5 km/h 98 % 0.0 mm
01:45 22.8 °C 23.0 °C 1026.0 hPa WSW 9.3 km/h 10.5 km/h 98 % 0.0 mm
01:50 22.8 °C 23.0 °C 1026.0 hPa WSW 9.3 km/h 10.1 km/h 98 % 0.0 mm
01:55 22.8 °C 23.0 °C 1026.0 hPa WSW 6.4 km/h 10.5 km/h 98 % 0.0 mm
02:00 22.8 °C 23.0 °C 1026.0 hPa Calm   10.5 km/h 98 % 0.0 mm
02:05 22.8 °C 23.0 °C 1026.0 hPa Calm   9.3 km/h 98 % 0.0 mm
02:10 22.8 °C 23.0 °C 1024.9 hPa Calm   8.7 km/h 98 % 0.0 mm
02:15 22.8 °C 23.0 °C 1024.9 hPa Calm   5.8 km/h 98 % 0.0 mm
02:20 22.8 °C 23.0 °C 1024.9 hPa Calm   6.1 km/h 98 % 0.0 mm
02:25 22.8 °C 23.0 °C 1026.0 hPa SW 6.1 km/h 6.9 km/h 98 % 0.0 mm
02:30 22.8 °C 23.0 °C 1026.0 hPa WSW 9.3 km/h 10.5 km/h 98 % 0.0 mm
02:35 22.8 °C 23.0 °C 1026.0 hPa SW 7.9 km/h 12.6 km/h 98 % 0.0 mm
02:40 22.8 °C 23.0 °C 1024.9 hPa WSW 9.0 km/h 12.6 km/h 98 % 0.0 mm
02:45 22.8 °C 23.0 °C 1024.9 hPa West 11.9 km/h 11.9 km/h 98 % 0.0 mm
02:50 22.8 °C 23.0 °C 1024.9 hPa WSW 9.3 km/h 11.9 km/h 98 % 0.0 mm
02:55 22.8 °C 23.0 °C 1026.0 hPa West 9.7 km/h 12.2 km/h 98 % 0.0 mm
03:00 22.8 °C 23.0 °C 1026.0 hPa SW 8.7 km/h 12.2 km/h 98 % 0.0 mm
03:05 22.8 °C 23.0 °C 1026.0 hPa WSW 9.3 km/h 12.2 km/h 98 % 0.0 mm
03:10 22.8 °C 23.0 °C 1024.9 hPa Calm   9.7 km/h 98 % 0.0 mm
03:15 22.8 °C 23.0 °C 1024.9 hPa Calm   9.7 km/h 98 % 0.0 mm
03:20 22.8 °C 23.0 °C 1024.9 hPa Calm   7.6 km/h 98 % 0.0 mm
03:25 22.8 °C 23.0 °C 1026.0 hPa Calm     98 % 0.0 mm
03:30 22.8 °C 23.0 °C 1026.0 hPa Calm   5.0 km/h 98 % 0.0 mm
03:36 22.8 °C 23.0 °C 1026.0 hPa WSW 5.5 km/h 6.9 km/h 98 % 0.0 mm
03:41 22.8 °C 23.0 °C 1024.9 hPa Calm   6.9 km/h 98 % 0.0 mm
03:46 22.8 °C 23.0 °C 1024.9 hPa Calm   6.9 km/h 98 % 0.0 mm
03:51 22.8 °C 23.0 °C 1024.9 hPa Calm   6.9 km/h 98 % 0.0 mm
03:56 22.8 °C 23.0 °C 1024.9 hPa Calm   5.5 km/h 98 % 0.0 mm
04:01 22.8 °C 23.0 °C 1024.9 hPa WSW 7.9 km/h 10.5 km/h 98 % 0.0 mm
04:06 22.8 °C 23.0 °C 1024.9 hPa WSW 11.1 km/h 11.1 km/h 98 % 0.0 mm
04:11 22.8 °C 23.0 °C 1024.9 hPa WSW 9.7 km/h 11.6 km/h 98 % 0.0 mm
04:16 22.8 °C 23.0 °C 1024.9 hPa WSW 9.3 km/h 11.6 km/h 98 % 0.0 mm
04:21 22.8 °C 23.0 °C 1024.9 hPa WSW 9.7 km/h 11.6 km/h 98 % 0.0 mm
04:26 22.8 °C 23.0 °C 1024.9 hPa WSW 9.7 km/h 11.6 km/h 98 % 0.0 mm
04:31 22.8 °C 23.0 °C 1024.9 hPa West 6.4 km/h 10.5 km/h 98 % 0.0 mm
04:36 22.8 °C 23.0 °C 1024.9 hPa WSW 9.3 km/h 14.0 km/h 98 % 0.0 mm
04:41 22.8 °C 23.0 °C 1024.9 hPa WSW 13.7 km/h 14.0 km/h 98 % 0.0 mm
04:46 22.8 °C 23.0 °C 1024.9 hPa West 9.7 km/h 13.7 km/h 98 % 0.0 mm
04:51 22.8 °C 23.0 °C 1024.9 hPa WSW 10.5 km/h 13.7 km/h 98 % 0.0 mm
04:56 22.8 °C 23.0 °C 1024.9 hPa West 9.3 km/h 13.7 km/h 98 % 0.0 mm
05:01 22.8 °C 23.0 °C 1024.9 hPa WSW 9.0 km/h 12.2 km/h 98 % 0.0 mm
05:11 22.8 °C 23.0 °C 1024.9 hPa West 10.5 km/h 13.0 km/h 98 % 0.0 mm
05:16 22.8 °C 23.0 °C 1024.9 hPa WSW 6.1 km/h 13.0 km/h 98 % 0.0 mm
05:21 22.8 °C 23.0 °C 1024.9 hPa West 10.5 km/h 11.9 km/h 98 % 0.0 mm
05:26 22.8 °C 23.0 °C 1024.9 hPa WSW 10.5 km/h 11.6 km/h 98 % 0.0 mm
05:31 22.8 °C 23.0 °C 1024.9 hPa WSW 9.0 km/h 11.6 km/h 98 % 0.0 mm
05:36 22.8 °C 23.0 °C 1024.9 hPa West 11.6 km/h 11.6 km/h 98 % 0.0 mm
05:41 22.8 °C 23.0 °C 1024.9 hPa WSW 9.0 km/h 11.6 km/h 98 % 0.0 mm
05:46 22.8 °C 23.0 °C 1024.9 hPa West 10.1 km/h 11.6 km/h 98 % 0.0 mm
05:51 22.8 °C 23.0 °C 1024.9 hPa West 9.0 km/h 10.8 km/h 98 % 0.0 mm
05:56 22.8 °C 23.0 °C 1024.9 hPa WSW 7.9 km/h 10.5 km/h 98 % 0.0 mm
06:02 22.8 °C 23.0 °C 1024.9 hPa WSW 9.3 km/h 10.5 km/h 98 % 0.0 mm
06:07 22.8 °C 23.0 °C 1024.9 hPa WSW 10.1 km/h 11.9 km/h 98 % 0.0 mm
06:12 22.8 °C 23.0 °C 1024.9 hPa WSW 6.9 km/h 11.9 km/h 98 % 0.0 mm
06:17 22.8 °C 23.0 °C 1024.9 hPa West 10.1 km/h 10.5 km/h 98 % 0.0 mm
06:22 22.8 °C 23.0 °C 1024.9 hPa West 7.9 km/h 10.5 km/h 98 % 0.0 mm
06:27 22.8 °C 23.0 °C 1024.9 hPa West 9.3 km/h 10.1 km/h 98 % 0.0 mm
06:32 22.8 °C 23.0 °C 1024.9 hPa WSW 9.0 km/h 10.1 km/h 98 % 0.0 mm
06:37 22.8 °C 23.0 °C 1026.0 hPa West 9.7 km/h 11.6 km/h 98 % 0.0 mm
06:42 22.8 °C 23.0 °C 1026.0 hPa West 6.9 km/h 11.6 km/h 98 % 0.0 mm
06:47 22.8 °C 23.0 °C 1026.0 hPa West 7.2 km/h 11.6 km/h 98 % 0.0 mm
06:52 22.8 °C 23.0 °C 1026.0 hPa West 9.3 km/h 9.7 km/h 98 % 0.0 mm
06:57 22.8 °C 23.0 °C 1026.0 hPa WSW 9.3 km/h 9.7 km/h 98 % 0.0 mm
07:02 22.8 °C 23.0 °C 1026.0 hPa WSW 9.3 km/h 10.5 km/h 98 % 0.0 mm
07:07 22.8 °C 23.0 °C 1026.0 hPa West 6.4 km/h 10.5 km/h 98 % 0.0 mm
07:12 22.8 °C 23.0 °C 1026.0 hPa WSW 9.3 km/h 9.7 km/h 98 % 0.0 mm
07:17 22.8 °C 23.0 °C 1026.0 hPa Calm   9.7 km/h 98 % 0.0 mm
07:22 22.8 °C 23.0 °C 1026.0 hPa WSW 9.0 km/h 9.3 km/h 98 % 0.0 mm
07:27 22.8 °C 23.0 °C 1026.0 hPa Calm   9.3 km/h 98 % 0.0 mm
07:32 22.8 °C 23.0 °C 1026.0 hPa Calm   9.0 km/h 98 % 0.0 mm
07:37 22.8 °C 23.0 °C 1026.0 hPa WSW 5.0 km/h 8.7 km/h 98 % 0.0 mm
07:42 22.8 °C 23.0 °C 1026.0 hPa West 8.7 km/h 10.1 km/h 98 % 0.0 mm
07:47 22.8 °C 23.0 °C 1026.0 hPa West 5.0 km/h 10.1 km/h 98 % 0.0 mm
07:52 22.8 °C 23.0 °C 1026.0 hPa West 5.5 km/h 10.1 km/h 98 % 0.0 mm
07:57 22.8 °C 23.0 °C 1026.0 hPa West 6.1 km/h 9.7 km/h 98 % 0.0 mm
08:02 22.8 °C 23.0 °C 1026.0 hPa West 10.1 km/h 11.6 km/h 98 % 0.0 mm
08:07 22.8 °C 23.0 °C 1026.0 hPa West 4.3 km/h 11.6 km/h 98 % 0.0 mm
08:12 22.8 °C 23.0 °C 1026.0 hPa Calm   11.6 km/h 98 % 0.0 mm
08:17 22.8 °C 23.0 °C 1026.0 hPa Calm   9.7 km/h 98 % 0.0 mm
08:22 22.8 °C 23.0 °C 1026.0 hPa NW 7.6 km/h 10.5 km/h 98 % 0.0 mm
08:27 22.8 °C 23.0 °C 1026.0 hPa Calm   10.5 km/h 98 % 0.0 mm
08:32 22.8 °C 23.0 °C 1026.0 hPa West 5.8 km/h 10.5 km/h 98 % 0.0 mm
08:37 22.8 °C 23.0 °C 1026.0 hPa West 6.4 km/h 6.4 km/h 98 % 0.0 mm
08:42 22.8 °C 23.0 °C 1026.0 hPa NNW 3.5 km/h 6.4 km/h 98 % 0.0 mm
08:47 22.8 °C 23.0 °C 1026.0 hPa NNW 8.7 km/h 8.7 km/h 98 % 0.0 mm
08:52 22.8 °C 23.0 °C 1026.0 hPa North 6.1 km/h 10.1 km/h 98 % 0.0 mm
08:57 22.8 °C 23.0 °C 1026.0 hPa West 4.7 km/h 10.1 km/h 98 % 0.0 mm
09:02 0.0 °C 18.0 °C 0.0 hPa NW 7.6 km/h 7.6 km/h 0 % 0.0 mm
09:07 21.1 °C 18.0 °C 1026.0 hPa WNW 1.4 km/h 7.9 km/h 80 % 0.0 mm
09:12 21.3 °C 18.0 °C 1026.0 hPa NNE 1.4 km/h 7.9 km/h 81 % 0.0 mm
09:18 21.2 °C 18.0 °C 1026.0 hPa Calm   9.0 km/h 80 % 0.0 mm
09:23 21.4 °C 18.0 °C 1026.0 hPa West 5.8 km/h 8.7 km/h 80 % 0.0 mm
09:28 21.3 °C 18.0 °C 1026.0 hPa NW 5.8 km/h 9.0 km/h 79 % 0.0 mm
09:33 21.4 °C 18.0 °C 1026.0 hPa WNW 4.0 km/h 9.0 km/h 79 % 0.0 mm
09:38 21.7 °C 18.0 °C 1026.0 hPa Calm   9.0 km/h 79 % 0.0 mm
09:43 21.9 °C 18.0 °C 1026.0 hPa West 4.0 km/h 6.9 km/h 79 % 0.0 mm
09:48 22.1 °C 18.0 °C 1026.0 hPa NNW 3.2 km/h 6.9 km/h 79 % 0.0 mm
09:53 22.0 °C 18.0 °C 1026.0 hPa Calm   7.6 km/h 76 % 0.0 mm
09:58 22.8 °C 19.0 °C 1026.0 hPa Calm   7.6 km/h 78 % 0.0 mm
10:03 23.5 °C 19.0 °C 1026.0 hPa NE 3.2 km/h 10.5 km/h 75 % 0.0 mm
10:08 23.7 °C 19.0 °C 1026.0 hPa Calm   13.7 km/h 75 % 0.0 mm
10:13 23.6 °C 19.0 °C 1026.0 hPa WNW 3.2 km/h 13.7 km/h 72 % 0.0 mm
10:18 23.5 °C 18.0 °C 1026.0 hPa NNW 3.5 km/h 6.9 km/h 71 % 0.0 mm
10:24 23.4 °C 18.0 °C 1026.0 hPa Calm   9.0 km/h 70 % 0.0 mm
10:29 23.5 °C 18.0 °C 1026.0 hPa Calm   9.0 km/h 71 % 0.0 mm
10:34 23.6 °C 18.0 °C 1026.0 hPa WNW 5.5 km/h 8.7 km/h 69 % 0.0 mm
10:39 24.2 °C 19.0 °C 1026.0 hPa Calm   7.9 km/h 70 % 0.0 mm
10:44 24.0 °C 18.0 °C 1026.0 hPa North 5.0 km/h 7.9 km/h 69 % 0.0 mm
10:49 24.6 °C 19.0 °C 1026.0 hPa Calm   12.6 km/h 68 % 0.0 mm
10:54 25.1 °C 19.0 °C 1026.0 hPa NW 6.4 km/h 12.6 km/h 67 % 0.0 mm
10:59 24.4 °C 18.0 °C 1026.0 hPa NNE 1.8 km/h 7.9 km/h 65 % 0.0 mm
11:04 24.2 °C 18.0 °C 1026.0 hPa North 5.5 km/h 10.1 km/h 66 % 0.0 mm
11:09 25.3 °C 19.0 °C 1026.0 hPa Calm   10.1 km/h 68 % 0.0 mm
11:14 25.1 °C 18.0 °C 1026.0 hPa ENE 6.1 km/h 8.7 km/h 66 % 0.0 mm
11:19 24.6 °C 17.0 °C 1026.0 hPa NNW 6.1 km/h 7.9 km/h 63 % 0.0 mm
11:21 24.5 °C 17.0 °C 1026.0 hPa Calm   7.9 km/h 63 % 0.0 mm
11:26 24.4 °C 17.0 °C 1026.0 hPa North 4.0 km/h 10.5 km/h 63 % 0.0 mm
11:31 24.3 °C 17.0 °C 1026.0 hPa Calm   10.5 km/h 64 % 0.0 mm
11:36 24.2 °C 17.0 °C 1026.0 hPa Calm   7.6 km/h 64 % 0.0 mm
11:42 24.1 °C 17.0 °C 1026.0 hPa NNE 9.0 km/h 11.9 km/h 65 % 0.0 mm
11:47 24.6 °C 18.0 °C 1026.0 hPa Calm   11.9 km/h 65 % 0.0 mm
11:52 24.4 °C 18.0 °C 1026.0 hPa NNW 6.1 km/h 9.7 km/h 65 % 0.0 mm
11:57 24.5 °C 17.0 °C 1026.0 hPa Calm   9.7 km/h 63 % 0.0 mm
12:02 24.8 °C 17.0 °C 1026.0 hPa North 7.6 km/h 10.1 km/h 63 % 0.0 mm
12:08 25.2 °C 18.0 °C 1026.0 hPa NW 5.8 km/h 11.9 km/h 62 % 0.0 mm
12:13 25.2 °C 17.0 °C 1026.0 hPa North 7.9 km/h 12.6 km/h 61 % 0.0 mm
12:18 24.8 °C 17.0 °C 1026.0 hPa NNE 5.8 km/h 12.6 km/h 61 % 0.0 mm
12:23 24.8 °C 17.0 °C 1026.0 hPa NNW 4.7 km/h 12.6 km/h 61 % 0.0 mm
12:29 24.9 °C 17.0 °C 1026.0 hPa NNW 8.7 km/h 9.7 km/h 61 % 0.0 mm
12:34 26.0 °C 18.0 °C 1026.0 hPa Calm   8.7 km/h 61 % 0.0 mm
12:39 26.7 °C 19.0 °C 1026.0 hPa NNW 4.7 km/h 9.0 km/h 61 % 0.0 mm
12:44 26.1 °C 17.0 °C 1026.0 hPa NNE 5.0 km/h 9.0 km/h 57 % 0.0 mm
12:49 27.0 °C 18.0 °C 1027.0 hPa West 11.9 km/h 11.9 km/h 58 % 0.0 mm
12:54 26.7 °C 17.0 °C 1027.0 hPa Calm   11.9 km/h 55 % 0.0 mm
12:59 26.3 °C 17.0 °C 1027.0 hPa NW 6.4 km/h 9.3 km/h 56 % 0.0 mm
13:04 27.0 °C 17.0 °C 1026.0 hPa WNW 9.0 km/h 10.5 km/h 55 % 0.0 mm
13:07 27.5 °C 18.0 °C 1026.0 hPa NNE 9.3 km/h 10.5 km/h 54 % 0.0 mm
13:12 26.3 °C 16.0 °C 1026.0 hPa North 10.1 km/h 12.2 km/h 53 % 0.0 mm
13:17 25.8 °C 16.0 °C 1026.0 hPa NW 6.1 km/h 12.2 km/h 54 % 0.0 mm
13:22 26.8 °C 17.0 °C 1026.0 hPa Calm   9.0 km/h 55 % 0.0 mm
13:27 26.5 °C 17.0 °C 1026.0 hPa NNE 8.7 km/h 14.3 km/h 53 % 0.0 mm
13:32 25.7 °C 16.0 °C 1026.0 hPa West 3.2 km/h 14.3 km/h 54 % 0.0 mm
13:37 26.2 °C 17.0 °C 1026.0 hPa North 4.7 km/h 10.5 km/h 55 % 0.0 mm
13:42 27.4 °C 17.0 °C 1026.0 hPa WNW 5.8 km/h 12.2 km/h 53 % 0.0 mm
13:47 26.8 °C 16.0 °C 1026.0 hPa NNW 4.3 km/h 14.0 km/h 52 % 0.0 mm
13:52 26.1 °C 16.0 °C 1026.0 hPa Calm   14.0 km/h 53 % 0.0 mm
13:57 27.2 °C 18.0 °C 1026.0 hPa West 6.1 km/h 7.9 km/h 54 % 0.0 mm
14:02 27.9 °C 17.0 °C 1026.0 hPa North 4.7 km/h 9.3 km/h 49 % 0.0 mm
14:07 27.6 °C 16.0 °C 1026.0 hPa NNW 5.0 km/h 12.6 km/h 49 % 0.0 mm
14:12 27.9 °C 16.0 °C 1026.0 hPa North 4.7 km/h 13.0 km/h 48 % 0.0 mm
14:17 27.3 °C 16.0 °C 1026.0 hPa North 9.0 km/h 13.0 km/h 49 % 0.0 mm
14:22 27.9 °C 16.0 °C 1026.0 hPa North 1.4 km/h 13.0 km/h 48 % 0.0 mm
14:27 28.0 °C 16.0 °C 1026.0 hPa North 5.0 km/h 15.4 km/h 47 % 0.0 mm
14:32 28.5 °C 17.0 °C 1026.0 hPa NE 10.5 km/h 15.4 km/h 47 % 0.0 mm
14:37 28.0 °C 16.0 °C 1026.0 hPa North 12.6 km/h 12.6 km/h 46 % 0.0 mm
14:43 28.7 °C 17.0 °C 1026.0 hPa WNW 6.1 km/h 13.7 km/h 47 % 0.0 mm
14:48 28.2 °C 16.0 °C 1026.0 hPa WSW 8.7 km/h 13.7 km/h 46 % 0.0 mm
14:53 29.2 °C 17.0 °C 1026.0 hPa North 2.6 km/h 13.7 km/h 46 % 0.0 mm
14:58 29.5 °C 17.0 °C 1026.0 hPa Calm   11.9 km/h 45 % 0.0 mm
15:03 28.8 °C 16.0 °C 1026.0 hPa NE 2.6 km/h 11.9 km/h 45 % 0.0 mm
15:08 28.8 °C 16.0 °C 1026.0 hPa NNW 7.9 km/h 10.1 km/h 44 % 0.0 mm
15:13 29.1 °C 16.0 °C 1026.0 hPa NNW 9.3 km/h 11.6 km/h 44 % 0.0 mm
15:18 29.1 °C 15.0 °C 1026.0 hPa West 6.9 km/h 12.6 km/h 43 % 0.0 mm
15:23 29.1 °C 16.0 °C 1026.0 hPa North 3.2 km/h 12.6 km/h 44 % 0.0 mm
15:28 29.1 °C 16.0 °C 1026.0 hPa ENE 5.8 km/h 12.2 km/h 44 % 0.0 mm
15:33 29.1 °C 16.0 °C 1026.0 hPa NNE 4.3 km/h 11.9 km/h 44 % 0.0 mm
15:38 29.4 °C 15.0 °C 1026.0 hPa North 4.3 km/h 10.8 km/h 43 % 0.0 mm
15:43 29.4 °C 15.0 °C 1026.0 hPa WNW 3.2 km/h 10.8 km/h 43 % 0.0 mm
15:49 29.7 °C 15.0 °C 1024.9 hPa West 8.7 km/h 9.3 km/h 42 % 0.0 mm
15:54 29.5 °C 16.0 °C 1024.9 hPa NNW 9.7 km/h 9.7 km/h 43 % 0.0 mm
15:59 28.4 °C 15.0 °C 1024.9 hPa NNW 11.9 km/h 14.0 km/h 43 % 0.0 mm
16:04 29.0 °C 15.0 °C 1026.0 hPa North 7.9 km/h 14.0 km/h 43 % 0.0 mm
16:09 29.1 °C 15.0 °C 1026.0 hPa North 7.9 km/h 11.9 km/h 43 % 0.0 mm
16:14 29.2 °C 15.0 °C 1026.0 hPa Calm   11.9 km/h 42 % 0.0 mm
16:19 29.2 °C 15.0 °C 1026.0 hPa NNE 9.0 km/h 13.0 km/h 43 % 0.0 mm
16:24 28.8 °C 15.0 °C 1026.0 hPa NE 10.1 km/h 13.7 km/h 43 % 0.0 mm
16:29 29.1 °C 15.0 °C 1026.0 hPa NNW 6.9 km/h 13.7 km/h 43 % 0.0 mm
16:34 29.2 °C 15.0 °C 1026.0 hPa NE 3.5 km/h 13.7 km/h 42 % 0.0 mm
16:36 29.3 °C 15.0 °C 1024.9 hPa NNE 10.1 km/h 13.7 km/h 42 % 0.0 mm
16:39 29.4 °C 15.0 °C 1024.9 hPa NNE 8.7 km/h 13.7 km/h 43 % 0.0 mm
16:44 29.5 °C 16.0 °C 1024.9 hPa Calm   13.0 km/h 43 % 0.0 mm
16:49 29.4 °C 15.0 °C 1026.0 hPa North 5.5 km/h 13.0 km/h 42 % 0.0 mm
16:54 29.5 °C 16.0 °C 1026.0 hPa NW 4.0 km/h 13.0 km/h 43 % 0.0 mm
16:59 29.1 °C 15.0 °C 1026.0 hPa NNW 6.4 km/h 16.6 km/h 42 % 0.0 mm
17:04 28.9 °C 15.0 °C 1024.9 hPa North 5.5 km/h 16.6 km/h 42 % 0.0 mm
17:09 29.0 °C 15.0 °C 1024.9 hPa NNE 5.8 km/h 13.7 km/h 42 % 0.0 mm
17:14 28.9 °C 15.0 °C 1024.9 hPa North 7.2 km/h 16.3 km/h 43 % 0.0 mm
17:19 29.0 °C 15.0 °C 1024.9 hPa NNW 6.4 km/h 16.3 km/h 42 % 0.0 mm
17:24 28.9 °C 15.0 °C 1024.9 hPa NNE 5.5 km/h 12.6 km/h 43 % 0.0 mm
17:29 28.7 °C 15.0 °C 1024.9 hPa NNW 9.0 km/h 13.7 km/h 42 % 0.0 mm
17:34 28.9 °C 15.0 °C 1024.9 hPa Calm   11.6 km/h 42 % 0.0 mm
17:39 28.9 °C 15.0 °C 1024.9 hPa NNE 12.6 km/h 12.6 km/h 43 % 0.0 mm
17:44 28.7 °C 15.0 °C 1024.9 hPa NNE 12.2 km/h 17.2 km/h 43 % 0.0 mm
17:49 28.4 °C 15.0 °C 1024.9 hPa North 14.0 km/h 17.7 km/h 43 % 0.0 mm
17:54 28.3 °C 15.0 °C 1024.9 hPa North 12.6 km/h 17.7 km/h 43 % 0.0 mm
18:00 28.5 °C 15.0 °C 1024.9 hPa North 7.9 km/h 13.7 km/h 43 % 0.0 mm
18:05 28.5 °C 16.0 °C 1024.9 hPa NE 4.0 km/h 12.6 km/h 44 % 0.0 mm
18:10 28.5 °C 16.0 °C 1024.9 hPa WNW 10.5 km/h 13.7 km/h 45 % 0.0 mm
18:15 28.2 °C 15.0 °C 1024.9 hPa NNE 5.0 km/h 13.0 km/h 44 % 0.0 mm
18:20 28.1 °C 15.0 °C 1024.9 hPa NE 5.5 km/h 13.0 km/h 44 % 0.0 mm
18:25 27.9 °C 15.0 °C 1024.9 hPa NNE 5.5 km/h 17.7 km/h 45 % 0.0 mm
18:30 27.9 °C 15.0 °C 1024.9 hPa North 8.7 km/h 17.7 km/h 44 % 0.0 mm
18:36 27.7 °C 15.0 °C 1024.9 hPa NNE 15.8 km/h 15.8 km/h 45 % 0.0 mm
18:41 27.7 °C 15.0 °C 1024.9 hPa North 5.5 km/h 15.8 km/h 45 % 0.0 mm
18:46 27.5 °C 15.0 °C 1024.9 hPa North 6.1 km/h 14.0 km/h 45 % 0.0 mm
18:51 27.5 °C 15.0 °C 1024.9 hPa NNW 5.5 km/h 14.0 km/h 46 % 0.0 mm
18:56 27.6 °C 15.0 °C 1024.9 hPa North 5.8 km/h 12.2 km/h 46 % 0.0 mm
19:01 27.3 °C 14.0 °C 1024.9 hPa NNW 10.5 km/h 14.0 km/h 44 % 0.0 mm
19:06 27.1 °C 14.0 °C 1024.9 hPa NNE 10.5 km/h 14.0 km/h 45 % 0.0 mm
19:11 27.2 °C 15.0 °C 1024.9 hPa NNE 11.1 km/h 12.6 km/h 46 % 0.0 mm
19:16 27.1 °C 14.0 °C 1024.9 hPa NE 9.3 km/h 14.0 km/h 45 % 0.0 mm
19:21 26.9 °C 15.0 °C 1024.9 hPa North 9.7 km/h 14.0 km/h 46 % 0.0 mm
19:26 26.8 °C 14.0 °C 1024.9 hPa NNW 6.9 km/h 11.6 km/h 45 % 0.0 mm
19:31 26.7 °C 14.0 °C 1024.9 hPa North 5.0 km/h 11.6 km/h 46 % 0.0 mm
19:36 26.6 °C 15.0 °C 1023.9 hPa NNW 11.9 km/h 12.2 km/h 47 % 0.0 mm
19:41 26.6 °C 14.0 °C 1023.9 hPa North 9.3 km/h 13.0 km/h 46 % 0.0 mm
19:46 26.5 °C 14.0 °C 1024.9 hPa North 7.9 km/h 13.0 km/h 46 % 0.0 mm
19:51 26.4 °C 14.0 °C 1024.9 hPa North 9.0 km/h 12.2 km/h 47 % 0.0 mm
19:56 26.2 °C 14.0 °C 1024.9 hPa NNE 6.4 km/h 13.7 km/h 46 % 0.0 mm
20:01 26.0 °C 14.0 °C 1024.9 hPa NNW 9.0 km/h 13.7 km/h 46 % 0.0 mm
20:06 25.9 °C 14.0 °C 1024.9 hPa North 4.7 km/h 12.6 km/h 47 % 0.0 mm
20:11 25.9 °C 14.0 °C 1024.9 hPa North 5.0 km/h 12.2 km/h 47 % 0.0 mm
20:16 25.8 °C 14.0 °C 1024.9 hPa NNW 7.6 km/h 12.2 km/h 47 % 0.0 mm
20:21 25.5 °C 14.0 °C 1024.9 hPa NNE 8.7 km/h 11.9 km/h 48 % 0.0 mm
20:26 25.3 °C 14.0 °C 1024.9 hPa NE 6.1 km/h 11.9 km/h 48 % 0.0 mm
20:31 25.2 °C 14.0 °C 1024.9 hPa North 5.5 km/h 11.9 km/h 49 % 0.0 mm
20:36 24.9 °C 14.0 °C 1024.9 hPa North 1.4 km/h 8.7 km/h 50 % 0.0 mm
20:42 24.8 °C 14.0 °C 1024.9 hPa ENE 5.0 km/h 9.0 km/h 50 % 0.0 mm
20:47 24.6 °C 14.0 °C 1024.9 hPa ENE 1.8 km/h 9.7 km/h 50 % 0.0 mm
20:52 24.1 °C 13.0 °C 1024.9 hPa NE 4.7 km/h 9.7 km/h 51 % 0.0 mm
20:57 23.8 °C 14.0 °C 1024.9 hPa North 5.0 km/h 9.7 km/h 53 % 0.0 mm
21:02 23.6 °C 14.0 °C 1024.9 hPa NE 5.5 km/h 9.3 km/h 54 % 0.0 mm
21:07 23.4 °C 14.0 °C 1024.9 hPa NNE 5.8 km/h 7.2 km/h 55 % 0.0 mm
21:12 23.2 °C 14.0 °C 1024.9 hPa NNE 4.3 km/h 6.4 km/h 56 % 0.0 mm
21:17 23.0 °C 14.0 °C 1024.9 hPa Calm   6.4 km/h 57 % 0.0 mm
21:22 22.8 °C 14.0 °C 1024.9 hPa Calm   6.9 km/h 58 % 0.0 mm
21:27 22.6 °C 14.0 °C 1024.9 hPa Calm   6.9 km/h 58 % 0.0 mm
21:32 22.4 °C 14.0 °C 1024.9 hPa Calm     60 % 0.0 mm
21:37 22.2 °C 14.0 °C 1024.9 hPa Calm     60 % 0.0 mm
21:42 21.9 °C 14.0 °C 1024.9 hPa NNE 3.2 km/h 3.5 km/h 62 % 0.0 mm
21:47 21.7 °C 14.0 °C 1024.9 hPa Calm   3.5 km/h 62 % 0.0 mm
21:52 21.5 °C 14.0 °C 1024.9 hPa Calm     63 % 0.0 mm
21:57 21.3 °C 14.0 °C 1024.9 hPa Calm     63 % 0.0 mm
22:02 21.0 °C 14.0 °C 1024.9 hPa Calm   2.1 km/h 64 % 0.0 mm
22:07 20.9 °C 14.0 °C 1024.9 hPa Calm   2.1 km/h 65 % 0.0 mm
22:12 20.7 °C 14.0 °C 1024.9 hPa Calm   4.7 km/h 65 % 0.0 mm
22:17 20.6 °C 14.0 °C 1024.9 hPa Calm   4.7 km/h 66 % 0.0 mm
22:23 20.5 °C 14.0 °C 1024.9 hPa North 2.6 km/h 4.0 km/h 67 % 0.0 mm
22:28 20.4 °C 14.0 °C 1024.9 hPa Calm   4.0 km/h 67 % 0.0 mm
22:33 20.2 °C 14.0 °C 1024.9 hPa Calm   3.5 km/h 68 % 0.0 mm
22:38 20.0 °C 14.0 °C 1024.9 hPa Calm   1.4 km/h 68 % 0.0 mm
22:43 19.8 °C 14.0 °C 1024.9 hPa Calm     69 % 0.0 mm
22:48 19.5 °C 14.0 °C 1026.0 hPa Calm     69 % 0.0 mm
22:53 19.3 °C 14.0 °C 1026.0 hPa Calm     71 % 0.0 mm
22:58 19.2 °C 14.0 °C 1026.0 hPa Calm     71 % 0.0 mm
23:03 19.1 °C 14.0 °C 1026.0 hPa Calm     71 % 0.0 mm
23:05 19.0 °C 14.0 °C 1026.0 hPa Calm     71 % 0.0 mm
23:10 18.8 °C 14.0 °C 1026.0 hPa Calm   2.1 km/h 72 % 0.0 mm
23:15 18.6 °C 14.0 °C 1026.0 hPa Calm   2.1 km/h 73 % 0.0 mm
23:20 18.5 °C 14.0 °C 1026.0 hPa Calm     74 % 0.0 mm
23:25 18.3 °C 14.0 °C 1026.0 hPa Calm     75 % 0.0 mm
23:30 18.1 °C 14.0 °C 1026.0 hPa Calm   1.8 km/h 75 % 0.0 mm
23:36 18.0 °C 14.0 °C 1026.0 hPa Calm   1.8 km/h 76 % 0.0 mm
23:41 17.9 °C 14.0 °C 1026.0 hPa Calm     76 % 0.0 mm
23:46 17.6 °C 14.0 °C 1026.0 hPa Calm     77 % 0.0 mm
23:51 17.5 °C 14.0 °C 1026.0 hPa Calm     78 % 0.0 mm
23:56 17.4 °C 14.0 °C 1026.0 hPa Calm     79 % 0.0 mm
Le Gheer Warneton
Courtoisie de Weather Underground - 2.25 mb

Mise a jour : 16-12-17 12:12:11
Généré par Cumulus 1.9.4 (1099)